Regional Weather Roundup
Issued by NWS

Home | Current Version | Previous Version | Text Only | Print | Product List | Glossary Off
Versions: 1 2 3 4 5 6 7 8 9 10 11 12 13 14 15 16 17 18 19 20 21 22 23 24 25 26 27 28 29 30 31 32 33 34 35 36 37 38 39 40 41 42 43 44 45 46 47 48 49 50

000
ASUS43 KDMX 271301
RWRIA

WEATHER ROUNDUP FOR IOWA
NATIONAL WEATHER SERVICE DES MOINES IA
800 AM CDT TUE JUN 27 2017

NOTE: "FAIR" INDICATES FEW OR NO CLOUDS BELOW 12,000 FEET WITH NO
SIGNIFICANT WEATHER AND/OR OBSTRUCTIONS TO VISIBILITY.

* - THESE STATIONS ARE NOT NWS STATIONS...THUS NOT UNDER NWS
QUALITY CONTROL.  THEY ALSO DO NOT REPORT WEATHER SUCH
AS PRECIPITATION OR FOG.

IAZ001>003-012>014-020>022-031>034-043>046-271400-
   NORTHWEST IOWA

CITY           SKY/WX    TMP DP  RH WIND       PRES   REMARKS
CARROLL *      SUNNY     57  50  77 S6        30.13S
CHEROKEE *     SUNNY     55  48  78 CALM      30.11F
DENISON *      SUNNY     61  48  63 S8        30.13F
LE MARS *      MOSUNNY   59  46  63 S6        30.10S
ORANGE CITY *  MOSUNNY   59  45  58 S5        30.09F
SHELDON *      SUNNY     59  45  58 S8        30.08F
SIOUX CITY     SUNNY     55  49  80 SE7       30.09S
SPENCER        SUNNY     60  44  55 S12       30.11F
STORM LAKE *   SUNNY     57  45  62 S8        30.12S
$$

IAZ055>058-069>071-079>083-090>094-271400-
   SOUTHWEST IOWA

CITY           SKY/WX    TMP DP  RH WIND       PRES   REMARKS
ATLANTIC *     SUNNY     59  48  67 CALM      30.12F
AUDUBON *      SUNNY     57  52  82 CALM      30.13F
CLARINDA *     SUNNY     59  54  82 CALM      30.15R
COUNCIL BLFS * SUNNY     59  52  77 SE8       30.11S
CRESTON *      SUNNY     61  50  67 VRB6      30.15S
HARLAN  *      SUNNY     57  52  82 CALM      30.15S
LAMONI         SUNNY     60  49  66 E3        30.14F
RED OAK *      SUNNY     59  52  77 SE6       30.13R
SHENANDOAH *   SUNNY     61  57  88 E5        30.12S
$$

IAZ047>049-059>061-072>074-084-271400-
   CENTRAL IOWA

CITY           SKY/WX    TMP DP  RH WIND       PRES   REMARKS
AMES           SUNNY     57  52  83 CALM      30.15S
ANKENY *       SUNNY     57  52  82 CALM      30.16S
BOONE *        SUNNY     61  48  63 S5        30.14S
CHARITON *     SUNNY     59  50  72 SE6       30.15S
DES MOINES     MOSUNNY   59  48  67 S7        30.15S
GRINNELL*      SUNNY     60  47  62 S6        30.17S
KNOXVILLE *    SUNNY     59  48  67 S5        30.14S
MARSHALLTOWN   SUNNY     57  49  74 CALM      30.15S
NEWTON *       SUNNY     57  50  77 CALM      30.16S
PELLA *        SUNNY     60  48  66 S5        30.17R
PERRY *          N/A     56  53  88 SE3       30.15S
$$

IAZ004>006-015-016-023>025-035-036-271400-
   NORTH CENTRAL IOWA

CITY           SKY/WX    TMP DP  RH WIND       PRES   REMARKS
ALGONA *       SUNNY     59  46  63 S8        30.14R
CLARION *        N/A     59  48  67 S8        30.15S
ESTHERVILLE    SUNNY     57  48  72 S6        30.12S
FORT DODGE *   SUNNY     57  48  72 S5        30.15S
MASON CITY     SUNNY     60  47  61 SW5       30.15S
FOREST CITY *    N/A     59  46  63 CALM      30.14S
WEBSTER CITY * SUNNY     59  50  72 S6        30.13S
IOWA FALLS *     N/A     61  47  60 SW5       30.16S
$$

IAZ007>011-017>019-026>030-037>042-050>054-066-271400-
   NORTHEAST IOWA

CITY           SKY/WX    TMP DP  RH WIND       PRES   REMARKS
CEDAR RAPIDS   SUNNY     57  50  77 W5        30.16R
CHARLES CITY * SUNNY     57  50  77 CALM      30.15S
CLINTON *      SUNNY     57  50  77 MISG      30.17R
DECORAH *      SUNNY     59  50  72 CALM      30.13S
DUBUQUE        SUNNY     59  49  69 VRB5      30.16R
MONTICELLO *   SUNNY     57  50  77 CALM      30.16R
WATERLOO       SUNNY     58  49  72 CALM      30.14S
$$

IAZ064-065-067-068-078-271400-
   EAST CENTRAL IOWA

CITY           SKY/WX    TMP DP  RH WIND       PRES   REMARKS
DAVENPORT      SUNNY     58  49  72 W5        30.17R
IOWA CITY      SUNNY     60  48  64 W5        30.18R
MT. PLEASANT * SUNNY     61  47  62 CALM      30.17R
MUSCATINE *    SUNNY     59  52  77 CALM      30.17S
QUAD CITIES    SUNNY     60  48  64 W3        30.16S
$$

IAZ062-063-075>077-085>089-095>099-271400-
   SOUTHEAST IOWA

CITY           SKY/WX    TMP DP  RH WIND       PRES   REMARKS
BURLINGTON     SUNNY     63  54  72 CALM      30.16S
FAIRFIELD *    SUNNY     61  48  63 S3        30.16S
FORT MADISON * SUNNY     63  54  72 CALM      30.17R
KEOKUK *       SUNNY     63  54  72 E3        30.16R
OSKALOOSA *      N/A     59  49  71 S3        30.17R
OTTUMWA        SUNNY     60  51  72 S7        30.16R
WASHINGTON *   SUNNY     59  50  72 W3        30.18R
$$

ABBREVIATIONS USED IN REMARKS
   TC - TEMPERATURES IN CELSIUS
  WCI - WIND CHILL INDEX
   HX - HEAT INDEX
  VSB - VISIBILITY
$$




USA.gov is the U.S. government's official web portal to all federal, state and local government web resources and services.